Weather History for Harrison, AR

Change the Weather History Date:

Tuesday, February 12, 2013

  Actual Average Record
Temperature  
Mean Temperature 35 °F 40 °F  
Max Temperature 44 °F 50 °F 80 °F (1962)
Min Temperature 26 °F 30 °F -24 °F (1899)
Degree Days  
Heating Degree Days 30 25  
Month to date heating degree days 264 315  
Since 1 July heating degree days 2460 2801  
Cooling Degree Days 0 0  
Month to date cooling degree days 0 0  
Year to date cooling degree days 1 0  
Moisture  
Dew Point 28 °F    
Average Humidity 73    
Maximum Humidity 92    
Minimum Humidity 53    
Precipitation  
Precipitation 0.21 in 0.10 in 2.15 in (1950)
Month to date precipitation 1.51 1.08  
Year to date precipitation 4.88 3.64  
Snow  
Snow 0.00 in 0.10 in 5.00 in (2008)
Month to date snowfall 0.0 1.6  
Since 1 July snowfall 0.3 7.6  
Snow Depth 0.00 in    
Sea Level Pressure  
Sea Level Pressure 30.02 in    
Wind  
Wind Speed 5 mph (ENE)    
Max Wind Speed 14 mph    
Max Gust Speed 20 mph    
Visibility 9 miles    
Events Rain , Snow    
T = Trace of Precipitation, MM = Missing Value Source: NWS Daily Summary

Daily Weather History Graph

Daily Weather History Graph

Search for Another Location

Airport:

Trip Planner

Search our weather history database for the weather conditions in past years. The results will help you decide how hot, cold, wet, or windy it might be!

Date:

Astronomy

Feb. 12, 2013 Rise Set
Actual Time 7:03 AM CST 5:50 PM CST
Civil Twilight 6:36 AM CST 6:17 PM CST
Nautical Twilight 6:06 AM CST 6:47 PM CST
Astronomical Twilight 5:36 AM CST 7:17 PM CST
Moon 8:07 AM CST 8:45 PM CST
Length of Visible Light 11h 40m
Length of Day
10h 47m
Waxing Crescent, 7% of the Moon is Illuminated
Feb 12
Waxing Crescent
Feb 17
First Quarter
Feb 25
Full
Mar 4
Last Quarter
Mar 11
New

Hourly Weather History & Observations

Time (CST) Temp. Windchill Dew Point Humidity Pressure Visibility Wind Dir Wind Speed Gust Speed Precip Events Conditions
12:53 AM 36.0 °F - 21.9 °F 57% 30.14 in 10.0 mi Calm Calm - N/A   Clear
1:53 AM 34.0 °F - 23.0 °F 64% 30.15 in 10.0 mi Calm Calm - N/A   Clear
2:53 AM 34.0 °F 29.8 °F 21.9 °F 61% 30.13 in 10.0 mi North 4.6 mph - N/A   Clear
3:53 AM 30.9 °F - 21.9 °F 69% 30.11 in 10.0 mi Calm Calm - N/A   Clear
4:53 AM 30.9 °F - 21.9 °F 69% 30.10 in 10.0 mi Calm Calm - N/A   Clear
5:53 AM 30.0 °F - 21.9 °F 72% 30.11 in 10.0 mi Calm Calm - N/A   Clear
6:53 AM 33.1 °F - 23.0 °F 66% 30.11 in 10.0 mi Calm Calm - N/A   Clear
7:53 AM 35.1 °F 32.2 °F 26.1 °F 70% 30.11 in 10.0 mi SSE 3.5 mph - N/A   Scattered Clouds
8:53 AM 37.9 °F 34.4 °F 27.0 °F 65% 30.09 in 10.0 mi SE 4.6 mph - N/A   Partly Cloudy
9:53 AM 39.0 °F 35.7 °F 27.0 °F 62% 30.10 in 10.0 mi SSE 4.6 mph - N/A   Mostly Cloudy
10:53 AM 41.0 °F 34.7 °F 26.1 °F 55% 30.09 in 10.0 mi SE 10.4 mph - N/A   Mostly Cloudy
11:53 AM 42.1 °F 36.6 °F 26.1 °F 53% 30.08 in 10.0 mi ESE 9.2 mph - N/A   Overcast
12:53 PM 42.1 °F 38.4 °F 27.0 °F 55% 30.04 in 10.0 mi East 5.8 mph - N/A   Overcast
1:53 PM 43.0 °F 38.2 °F 26.1 °F 51% 29.99 in 10.0 mi ENE 8.1 mph - N/A   Overcast
2:53 PM 42.1 °F 38.4 °F 27.0 °F 55% 30.00 in 10.0 mi East 5.8 mph - 0.00 in Rain Light Rain
3:53 PM 41.0 °F 34.7 °F 30.0 °F 65% 29.96 in 10.0 mi East 10.4 mph - 0.00 in Rain Light Rain
4:53 PM 42.1 °F 37.7 °F 30.0 °F 62% 29.93 in 10.0 mi East 6.9 mph - 0.00 in Rain Light Rain
5:53 PM 41.0 °F 38.0 °F 30.0 °F 65% 29.91 in 10.0 mi ENE 4.6 mph - 0.00 in Rain Light Rain
6:53 PM 39.0 °F 32.8 °F 32.0 °F 76% 29.95 in 10.0 mi SE 9.2 mph - 0.00 in Rain Light Rain
7:24 PM 37.4 °F 33.8 °F 33.8 °F 87% 29.94 in 8.0 mi East 4.6 mph - 0.01 in Rain Light Rain
7:53 PM 37.0 °F 33.3 °F 33.1 °F 86% 29.96 in 9.0 mi North 4.6 mph - 0.03 in Rain Light Rain
8:36 PM 35.6 °F 29.9 °F 33.8 °F 93% 29.94 in 10.0 mi NNW 6.9 mph - 0.02 in Rain Light Rain
8:53 PM 35.1 °F 30.1 °F 34.0 °F 96% 29.96 in 7.0 mi NNW 5.8 mph - 0.03 in Rain Light Rain
9:19 PM 35.6 °F 32.8 °F 33.8 °F 93% 29.95 in 8.0 mi NNW 3.5 mph - 0.01 in Rain Light Rain
9:53 PM 35.1 °F 32.2 °F 34.0 °F 96% 29.97 in 6.0 mi NNW 3.5 mph - 0.04 in Rain Light Rain
10:53 PM 34.0 °F 29.8 °F 33.1 °F 96% 29.96 in 2.5 mi NNW 4.6 mph - 0.06 in Snow Light Snow
11:18 PM 33.8 °F 29.6 °F 32.0 °F 93% 29.94 in 1.8 mi NNW 4.6 mph - 0.02 in Snow Light Snow
11:53 PM 33.1 °F 27.7 °F 32.0 °F 96% 29.95 in 2.0 mi NNW 5.8 mph - 0.05 in Snow Light Snow